[[{"header":{"parameterUnit":"m.s-1","parameterCategory":1,"la1":30.2991,"la2":30.254,"lo1":-89.0895,"lo2":-89.0444,"dy":0.0017,"dx":0.0017,"nx":28,"ny":28,"refTime":"2024-02-01T09:00:00:Z","depth":0,"parameterNumber":2,"parameterNumberName":"U-component_of_WINDS"},"data":[0,0,0,0,0,0,0,0,0,0,0,0,0,0,0,0,0,0,0,0,0,0,0,0,0,0,0,0,0,0,0,0,0,0,0,0,0,0,0,0,0,0,0,0,0,0,0,0,0,0,0,0,0,0,0,0,0,0,-0.7907,-0.7907,0,-0.7858,-0.7857,-0.7857,-0.7795,-0.7794,-0.7793,-0.7792,-0.7741,-0.7741,-0.774,0,0,0,0,0,0,0,0,0,0,0,0,0,-0.7949,-0.7949,-0.7908,-0.7907,-0.7906,-0.7858,-0.7857,-0.7857,-0.7795,-0.7793,-0.7792,-0.7791,-0.7741,-0.7741,-0.774,0,0,0,0,0,0,0,0,0,0,0,0,0,-0.7919,-0.7949,-0.7908,-0.787,-0.7866,-0.7858,-0.7857,-0.7857,-0.7795,-0.7793,-0.7792,-0.7791,-0.7741,-0.7741,-0.774,-0.7766,0,0,-0.7738,-0.7738,0,0,0,0,0,0,0,0,-0.7921,-0.7917,-0.7876,-0.7872,-0.7868,-0.7831,-0.7854,-0.7826,-0.7795,-0.7822,-0.7792,-0.779,-0.7772,-0.7769,-0.7763,-0.7764,-0.7761,-0.7738,-0.7738,-0.7737,-0.7737,0,0,0,0,0,0,0,-0.7923,-0.7919,-0.7888,-0.7875,-0.787,-0.7855,-0.7849,-0.7848,-0.7806,-0.7819,-0.7815,-0.781,-0.777,-0.7764,-0.7761,-0.7761,-0.7738,-0.7738,-0.7737,-0.7737,-0.7781,-0.7783,0,0,0,0,0,0,-0.7931,-0.7921,-0.7889,-0.7886,-0.7891,-0.7856,-0.7849,-0.7844,-0.7806,-0.7798,-0.7811,-0.7807,-0.7765,-0.7762,-0.7759,-0.7787,-0.7737,-0.7737,-0.7736,-0.778,-0.7782,-0.7784,0,0,0,0,0,0,-0.7932,-0.7928,-0.7891,-0.7903,-0.7897,-0.7857,-0.7852,-0.7844,-0.7838,-0.7799,-0.7792,-0.7813,-0.7764,-0.776,-0.7765,-0.7785,-0.7737,-0.7736,-0.7778,-0.7781,-0.7783,-0.7844,0,0,0,0,0,0,-0.7933,-0.7929,-0.7938,-0.7903,-0.7896,-0.7898,-0.7853,-0.7844,-0.7837,-0.7831,-0.7799,-0.7792,-0.7763,-0.7766,-0.7764,-0.7783,-0.7735,-0.7776,-0.7779,-0.7782,-0.784,-0.7848,-0.7855,0,0,0,0,0,-0.7935,-0.7957,-0.7939,-0.7935,-0.7907,-0.7899,-0.7895,-0.7861,-0.7839,-0.7848,-0.7823,-0.7793,-0.7783,-0.7767,-0.7765,-0.7783,-0.7775,-0.7778,-0.7782,-0.7836,-0.7846,-0.7855,0,0,0,0,0,0,-0.7995,-0.7952,-0.7931,-0.7943,-0.7925,-0.7889,-0.7899,-0.7872,-0.7861,-0.7856,-0.7814,-0.7807,-0.7817,-0.7801,-0.7784,-0.7807,-0.7775,-0.7778,-0.7817,-0.7826,-0.7833,-0.7837,-0.7735,0,0,0,0,0,-0.801,-0.8007,-0.7969,-0.7983,-0.7976,-0.7939,-0.7934,-0.791,-0.789,-0.7882,-0.7858,-0.784,-0.7832,-0.7829,-0.782,-0.7838,-0.783,-0.7849,-0.7857,-0.7863,-0.7866,-0.7875,-0.7883,-0.7795,-0.7795,-0.7795,0,0,-0.804,-0.8016,-0.8016,-0.7995,-0.7978,-0.7976,-0.7933,-0.7933,-0.7931,-0.7882,-0.7885,-0.7867,-0.7844,-0.7856,-0.786,-0.7842,-0.7889,-0.7868,-0.7873,-0.7872,-0.7879,-0.7888,-0.7895,-0.7797,-0.7797,-0.7797,0,0,-0.8093,-0.8075,-0.8085,-0.8069,-0.8045,-0.8021,-0.8024,-0.7992,-0.7978,-0.798,-0.7944,-0.7942,-0.793,-0.7915,-0.7906,-0.7957,-0.7929,-0.7956,-0.7994,-0.8003,-0.801,-0.8016,-0.8034,-0.8041,-0.7959,-0.7959,-0.7959,0,-0.8134,-0.8129,-0.8093,-0.8095,-0.8087,-0.8043,-0.8053,-0.804,-0.8014,-0.801,-0.7991,-0.7976,-0.7958,-0.7966,-0.7979,-0.7973,-0.7975,-0.7958,-0.8012,-0.8018,-0.8023,-0.804,-0.8047,-0.7962,-0.7962,-0.7962,-0.7961,0,-0.818,-0.8178,-0.8189,-0.8165,-0.8158,-0.8165,-0.813,-0.8128,-0.8104,-0.8082,-0.8086,-0.8063,-0.8049,-0.805,-0.8026,-0.8055,-0.8045,-0.802,-0.7986,-0.8035,-0.805,-0.8056,-0.7967,-0.7966,-0.7965,-0.7964,0,0,-0.8268,-0.8226,-0.823,-0.822,-0.8191,-0.8188,-0.8193,-0.818,-0.8179,-0.8163,-0.8166,-0.8159,-0.8136,-0.8126,-0.8101,-0.8109,-0.8151,-0.8083,-0.8082,-0.8097,-0.8181,-0.82,-0.8207,-0.8133,-0.8134,-0.8135,-0.8183,0,-0.8316,-0.8321,-0.829,-0.8303,-0.8301,-0.826,-0.8265,-0.8248,-0.8228,-0.8224,-0.8202,-0.8197,-0.8167,-0.8161,-0.8168,-0.8145,-0.8168,-0.8141,-0.8135,-0.8136,-0.8141,-0.8215,-0.8234,-0.8281,-0.8189,-0.819,-0.819,0,-0.8372,-0.8359,-0.8373,-0.8344,-0.8342,-0.8347,-0.8332,-0.8329,-0.8309,-0.8295,-0.8285,-0.8257,-0.826,-0.8229,-0.8233,-0.8216,-0.8212,-0.8201,-0.8202,-0.8199,-0.8165,-0.8214,-0.8294,-0.8301,-0.8199,-0.8199,-0.8198,0,-0.8434,-0.8422,-0.8428,-0.842,-0.8387,-0.8391,-0.8377,-0.8356,-0.8351,-0.8339,-0.8335,-0.8324,-0.8318,-0.831,-0.828,-0.826,-0.8288,-0.8254,-0.8276,-0.8277,-0.8282,-0.8282,-0.8363,-0.8282,-0.8281,-0.8281,-0.8281,0,-0.849,-0.85,-0.8456,-0.846,-0.847,-0.8435,-0.8446,-0.8428,-0.841,-0.8411,-0.8375,-0.8377,-0.8337,-0.8334,-0.8311,-0.8318,-0.8316,-0.8304,-0.8298,-0.8307,-0.8308,-0.8303,-0.8299,-0.8283,-0.8283,-0.8282,-0.8282,0,-0.8561,-0.8532,-0.8536,-0.8505,-0.8498,-0.8507,-0.848,-0.8483,-0.8462,-0.8462,-0.8461,-0.8428,-0.8422,-0.8392,-0.838,-0.8365,-0.838,-0.8368,-0.8387,-0.8382,-0.8405,-0.8403,-0.8484,-0.8493,-0.8407,-0.8408,-0.8409,0,-0.8598,-0.8605,-0.8575,-0.8572,-0.856,-0.8557,-0.8552,-0.8518,-0.8513,-0.8493,-0.8498,-0.849,-0.8482,-0.8476,-0.8451,-0.8442,-0.8429,-0.8458,-0.8427,-0.8436,-0.8429,-0.8428,-0.8429,-0.8464,-0.8465,-0.8466,-0.8467,0,-0.8667,-0.8653,-0.8646,-0.8634,-0.8629,-0.8618,-0.8605,-0.8606,-0.8568,-0.8566,-0.856,-0.8554,-0.8542,-0.8535,-0.8522,-0.8508,-0.8482,-0.8477,-0.8481,-0.849,-0.8501,-0.8495,-0.8404,-0.8475,-0.8474,-0.8473,-0.8473,-0.8473,-0.8722,-0.8726,-0.8706,-0.8699,-0.8687,-0.8676,-0.8677,-0.8657,-0.8651,-0.8639,-0.862,-0.8617,-0.8599,-0.8579,-0.8568,-0.8565,-0.855,-0.8556,-0.8558,-0.856,-0.8564,-0.8502,-0.8563,-0.8563,-0.8563,-0.8562,-0.8562,0,-0.8788,-0.8774,-0.8769,-0.8752,-0.8748,-0.8724,-0.8709,-0.8707,-0.8705,-0.869,-0.8683,-0.8677,-0.8671,-0.8646,-0.8637,-0.864,-0.8628,-0.8639,-0.8638,-0.8635,-0.8579,-0.8576,-0.8649,-0.8649,-0.8649,-0.8649,-0.8649,-0.8649,-0.8822,-0.8829,-0.8812,-0.8812,-0.8797,-0.8794,-0.8788,-0.8778,-0.8766,-0.8762,-0.8756,-0.874,-0.8722,-0.8711,-0.8704,-0.8697,-0.8696,-0.8711,-0.87,-0.8647,-0.8639,-0.8631,-0.8628,-0.8711,-0.8711,-0.8756,-0.8756,-0.8757]},{"header":{"parameterUnit":"m.s-1","parameterCategory":1,"la1":30.2991,"la2":30.254,"lo1":-89.0895,"lo2":-89.0444,"dy":0.0017,"dx":0.0017,"nx":28,"ny":28,"refTime":"2024-02-01T09:00:00:Z","depth":0,"parameterNumber":3,"parameterNumberName":"V-component_of_WINDS"},"data":[0,0,0,0,0,0,0,0,0,0,0,0,0,0,0,0,0,0,0,0,0,0,0,0,0,0,0,0,0,0,0,0,0,0,0,0,0,0,0,0,0,0,0,0,0,0,0,0,0,0,0,0,0,0,0,0,0,0,1.8947,1.8947,0,1.8947,1.8947,1.8947,1.8993,1.8994,1.8995,1.8997,1.8993,1.8992,1.899,0,0,0,0,0,0,0,0,0,0,0,0,0,1.8982,1.8981,1.8947,1.8947,1.8947,1.8947,1.8947,1.8947,1.8993,1.8994,1.8996,1.8997,1.8993,1.8992,1.899,0,0,0,0,0,0,0,0,0,0,0,0,0,1.8973,1.8981,1.8947,1.897,1.8972,1.8947,1.8947,1.8947,1.8993,1.8994,1.8996,1.8998,1.8994,1.8992,1.899,1.8942,0,0,1.8984,1.8984,0,0,0,0,0,0,0,0,1.8973,1.8972,1.8966,1.8968,1.897,1.8972,1.8958,1.8945,1.8992,1.8984,1.8997,1.8999,1.8984,1.8983,1.8979,1.8942,1.8942,1.8984,1.8983,1.8982,1.8982,0,0,0,0,0,0,0,1.8974,1.8972,1.8947,1.8966,1.8969,1.8979,1.898,1.8956,1.8974,1.8985,1.8989,1.8988,1.8985,1.8981,1.8979,1.8942,1.8984,1.8983,1.8981,1.8981,1.8865,1.8864,0,0,0,0,0,0,1.8972,1.8972,1.8947,1.8947,1.8977,1.8977,1.8978,1.897,1.8974,1.8977,1.8987,1.899,1.8983,1.8981,1.8979,1.8924,1.8982,1.8981,1.8979,1.8867,1.8865,1.8863,0,0,0,0,0,0,1.8973,1.8969,1.8947,1.896,1.8958,1.8974,1.8965,1.8969,1.8964,1.8976,1.8979,1.8979,1.8984,1.8982,1.8951,1.8924,1.898,1.8978,1.887,1.8867,1.8864,1.8812,0,0,0,0,0,0,1.8973,1.8969,1.8952,1.896,1.8957,1.892,1.8963,1.8967,1.8961,1.8966,1.8969,1.8971,1.8986,1.8954,1.895,1.8923,1.8977,1.8872,1.8868,1.8865,1.8816,1.8808,1.8801,0,0,0,0,0,1.8975,1.8936,1.8951,1.8948,1.8936,1.8918,1.8917,1.8935,1.8959,1.8941,1.8949,1.8971,1.8928,1.895,1.8946,1.8918,1.8874,1.8869,1.8865,1.882,1.881,1.8801,0,0,0,0,0,0,1.8923,1.8938,1.8954,1.8917,1.8916,1.8926,1.8904,1.8924,1.8915,1.892,1.8942,1.8942,1.8908,1.891,1.8935,1.8872,1.8905,1.8899,1.8872,1.8862,1.8855,1.8855,1.8975,0,0,0,0,0,1.8908,1.8893,1.8906,1.8872,1.8871,1.8888,1.888,1.8895,1.8894,1.8894,1.8899,1.8896,1.8882,1.8872,1.886,1.8817,1.8818,1.8796,1.8788,1.8781,1.8776,1.8754,1.8744,1.8849,1.8849,1.8849,0,0,1.8876,1.8882,1.8871,1.8862,1.8863,1.8846,1.8887,1.8867,1.8855,1.889,1.8862,1.8866,1.8864,1.8827,1.8811,1.8828,1.8748,1.8776,1.877,1.8769,1.8748,1.8738,1.8729,1.8846,1.8846,1.8847,0,0,1.8808,1.8812,1.8784,1.8785,1.8786,1.8798,1.8791,1.8798,1.8802,1.8775,1.8801,1.8786,1.8761,1.876,1.8755,1.8688,1.8708,1.8683,1.8642,1.862,1.8611,1.8604,1.858,1.8571,1.8678,1.8678,1.8678,0,1.8768,1.8745,1.8767,1.8746,1.8742,1.8775,1.8747,1.8746,1.8742,1.8738,1.8757,1.8728,1.8729,1.8692,1.8676,1.8671,1.8664,1.8683,1.8611,1.8604,1.8597,1.8575,1.8566,1.8675,1.8675,1.8676,1.8676,0,1.8695,1.8678,1.8656,1.8654,1.8646,1.8622,1.864,1.863,1.8645,1.8654,1.8625,1.8628,1.8618,1.861,1.8624,1.8575,1.8585,1.8607,1.8641,1.8584,1.8563,1.8555,1.8671,1.8672,1.8673,1.8673,0,0,1.8594,1.8606,1.8597,1.8597,1.8601,1.8589,1.8565,1.8556,1.8547,1.8544,1.8524,1.8503,1.8524,1.8519,1.8533,1.8514,1.8461,1.8538,1.8539,1.8524,1.8407,1.839,1.838,1.8474,1.8473,1.8471,1.8407,0,1.8529,1.8492,1.8512,1.8471,1.8456,1.8488,1.8467,1.8467,1.8475,1.8463,1.8471,1.8456,1.8484,1.8481,1.8464,1.8471,1.8437,1.8476,1.8455,1.8455,1.8455,1.8369,1.8351,1.829,1.8399,1.8397,1.8396,0,1.8448,1.8443,1.8402,1.841,1.8404,1.8386,1.8379,1.8367,1.8368,1.8375,1.837,1.8389,1.8366,1.8399,1.8367,1.8393,1.8386,1.8388,1.8386,1.8385,1.8422,1.8365,1.8271,1.8261,1.8384,1.8385,1.8386,0,1.8379,1.8362,1.8335,1.8334,1.8342,1.8329,1.8331,1.8334,1.8327,1.8321,1.8317,1.8308,1.8302,1.8294,1.831,1.8333,1.8276,1.831,1.828,1.828,1.8266,1.8267,1.817,1.8262,1.8262,1.8262,1.8262,0,1.8305,1.8278,1.8305,1.8288,1.8259,1.8281,1.8251,1.8257,1.8259,1.8244,1.827,1.8254,1.8276,1.8262,1.8274,1.8246,1.8243,1.8248,1.8251,1.8245,1.8245,1.824,1.8245,1.826,1.826,1.8261,1.8261,0,1.8223,1.824,1.8212,1.8223,1.8225,1.8203,1.8212,1.8196,1.8207,1.8186,1.8183,1.8198,1.8183,1.8198,1.8184,1.8192,1.8154,1.8164,1.8154,1.8157,1.8126,1.8128,1.8022,1.801,1.811,1.8109,1.8108,0,1.8174,1.8154,1.8163,1.8156,1.8157,1.8144,1.8138,1.816,1.8152,1.8151,1.8136,1.8124,1.8115,1.809,1.8099,1.8088,1.8097,1.8061,1.8096,1.8091,1.8097,1.8098,1.8096,1.8054,1.8052,1.8051,1.8051,0,1.8085,1.8095,1.8086,1.808,1.8072,1.8068,1.8066,1.8058,1.808,1.807,1.8056,1.805,1.8036,1.8023,1.8015,1.8017,1.8037,1.804,1.8032,1.8026,1.8021,1.8023,1.8135,1.8042,1.8043,1.8043,1.8044,1.8044,1.8018,1.8003,1.8007,1.7996,1.7997,1.7995,1.7981,1.799,1.7979,1.7971,1.7984,1.7966,1.7967,1.7959,1.7958,1.7944,1.796,1.7948,1.7946,1.7943,1.7938,1.8024,1.7943,1.7943,1.7943,1.7944,1.7944,0,1.7931,1.7936,1.7926,1.7923,1.7914,1.7936,1.7934,1.7925,1.791,1.791,1.7902,1.7885,1.7874,1.7882,1.7872,1.7859,1.7868,1.7855,1.7856,1.7856,1.7925,1.7933,1.7848,1.7848,1.7848,1.7848,1.7848,1.7848,1.7885,1.786,1.787,1.7845,1.7849,1.7834,1.7831,1.7829,1.7829,1.781,1.7801,1.7808,1.7811,1.7801,1.7791,1.7793,1.7788,1.7772,1.7778,1.7842,1.7851,1.786,1.7868,1.7771,1.7771,1.7711,1.771,1.771]}]]